Theta_e
316 315 315 319 320 321 321 319 319 318 322 320 315 319 315 314 316 314 316 316 315 317 317 317 317 316 318 318 319 320 321 324 324 322 320 321 324 325 326 328 329 331 334 337 338 338 337 338 337 335 335 333 332 331 328 327 327 327 327 326 326 328 330 331 331 331 331 331 330 331 327 324 323 323 323 322 321 319 317 315 313 312 311 310 309 307 307 307 307 308 308 308 308 309 309 309 309
316 316 318 320 321 324 320 318 322 324 326 318 313 317 315 315 317 316 317 316 317 318 319 319 319 319 319 319 319 320 322 324 324 323 322 322 324 323 323 325 328 332 334 337 338 337 338 338 337 336 335 335 334 331 328 327 327 326 327 328 327 325 327 329 330 330 330 330 329 330 327 325 325 324 323 322 320 320 318 317 315 313 312 311 309 308 306 306 306 306 307 307 308 308 308 309 309
317 319 319 321 322 321 323 320 321 327 328 318 316 320 315 315 317 317 316 315 318 317 317 318 319 320 319 320 320 320 322 323 323 323 322 322 322 321 322 325 327 331 334 336 337 337 338 338 338 338 337 337 335 332 328 327 327 326 328 330 326 321 324 327 329 329 328 329 329 329 328 326 326 324 323 322 322 322 321 318 316 314 313 312 310 309 307 306 305 305 305 306 306 307 307 308 308
318 320 320 322 322 320 334 331 325 331 327 319 319 321 318 318 318 315 313 314 317 318 315 318 319 319 319 321 320 319 321 321 321 321 321 321 321 321 324 326 327 331 334 336 337 337 338 338 338 339 338 338 336 332 329 330 329 327 327 327 323 319 323 326 328 329 328 328 329 330 328 325 325 325 324 323 324 325 324 321 318 315 313 312 311 310 308 306 305 305 304 304 304 305 305 305 306
319 321 320 322 324 322 331 326 325 330 320 320 319 318 325 324 318 312 312 313 316 318 316 318 320 318 318 319 319 320 321 320 320 321 320 320 320 322 325 325 326 331 335 335 337 337 338 338 338 339 338 338 337 334 332 331 330 328 327 324 320 319 323 325 327 329 329 329 329 330 328 326 325 325 325 325 326 326 326 324 320 316 313 313 312 311 309 307 306 305 304 304 304 304 304 304 304
319 321 320 321 321 317 321 319 321 323 316 321 319 317 324 319 315 312 312 313 315 317 316 317 319 318 318 319 320 321 321 319 319 320 318 318 320 322 325 325 326 331 335 334 336 337 337 338 338 339 338 338 338 336 335 333 331 328 327 325 320 319 322 324 326 328 329 329 329 329 329 327 326 326 326 327 327 326 326 325 322 318 314 312 312 312 310 309 306 305 304 304 304 304 304 304 304
320 321 320 321 319 316 325 324 319 321 314 313 315 316 317 312 312 312 312 314 315 315 316 317 317 318 319 319 319 320 321 318 317 317 316 317 320 323 325 325 327 331 334 335 336 337 337 337 338 338 338 338 337 337 336 334 332 328 327 326 320 319 322 322 325 328 329 329 328 329 330 329 328 328 327 328 327 326 326 325 322 319 314 312 312 312 311 309 307 305 304 304 304 304 305 305 305
320 320 318 325 326 323 331 324 318 322 314 308 311 313 312 311 312 311 312 313 314 315 317 317 316 318 320 318 318 319 319 317 317 316 315 317 320 323 324 325 328 330 334 334 335 336 336 336 338 338 338 338 338 337 337 334 332 330 328 326 322 319 321 321 322 326 328 328 327 328 329 329 329 329 329 328 327 325 326 325 323 319 316 313 312 312 311 310 308 306 304 304 304 304 305 305 305
319 320 318 325 328 329 331 321 316 317 316 313 311 312 312 313 312 311 313 312 313 315 316 316 315 317 319 317 317 318 317 318 317 316 315 316 320 323 324 325 328 331 333 334 335 336 335 335 336 337 338 338 338 337 337 335 333 331 329 327 323 319 320 320 320 324 327 327 327 327 328 329 329 330 329 328 326 325 325 324 323 320 317 314 312 312 311 310 308 306 305 304 304 304 305 306 306
319 320 317 324 329 325 324 318 319 317 315 315 311 312 313 313 313 311 313 313 313 314 315 315 314 316 318 316 315 317 318 317 317 316 315 316 319 323 324 323 326 330 332 333 334 335 335 334 334 335 337 338 338 337 337 336 334 332 329 327 324 320 320 320 321 324 325 326 326 326 327 329 329 329 329 327 326 325 324 325 323 320 318 315 312 312 311 310 309 307 305 304 303 304 305 305 306
318 317 317 333 334 323 322 320 321 320 316 314 312 313 313 312 313 312 313 313 313 314 314 314 316 317 316 314 314 316 317 317 317 316 316 317 318 321 325 323 322 327 331 333 334 334 335 334 333 334 335 337 337 337 337 336 334 333 330 328 325 322 321 320 321 324 326 326 326 327 327 328 328 328 328 326 326 325 324 325 323 320 319 317 313 312 312 311 309 307 306 304 304 303 304 305 305
316 318 329 341 331 323 326 322 318 321 320 318 315 314 313 312 313 313 313 313 312 313 313 314 316 317 314 313 314 315 316 316 317 316 316 317 317 320 324 325 322 321 328 333 331 330 331 332 333 333 334 337 337 337 337 336 335 333 331 330 327 325 323 320 321 324 326 326 326 326 326 327 327 327 327 326 325 324 325 325 323 320 320 318 314 312 312 312 311 309 306 305 304 303 303 304 305
315 320 339 331 318 322 324 320 319 322 322 318 315 313 313 312 313 314 313 313 312 313 314 313 316 316 315 314 313 314 314 316 316 316 316 316 317 318 323 327 322 319 321 324 325 327 327 327 330 331 332 336 336 335 337 337 335 334 333 331 330 327 324 322 321 323 325 325 326 325 325 326 326 326 326 325 325 323 325 325 322 321 320 319 316 313 313 312 312 310 308 305 304 303 303 303 304
315 319 336 325 313 320 321 319 319 318 320 318 314 312 314 313 313 314 313 315 313 313 314 314 316 316 315 315 314 313 313 314 314 315 315 315 317 316 323 325 322 326 324 320 327 335 331 323 326 329 329 335 335 334 336 336 335 334 334 332 331 330 326 324 323 323 324 325 325 324 325 325 324 325 325 324 323 323 326 325 323 322 321 320 318 315 314 313 312 311 310 307 305 303 303 302 303
317 313 327 326 315 318 318 318 320 320 320 318 315 313 314 313 313 313 314 316 314 313 314 314 315 315 315 315 316 313 313 314 313 314 313 314 315 314 322 322 324 333 330 326 332 337 334 329 332 330 326 333 334 333 335 335 335 334 333 332 332 332 329 326 325 324 323 324 324 324 325 324 323 323 324 324 322 323 326 325 323 322 321 321 320 317 315 314 313 313 312 310 309 307 305 305 304
317 315 327 329 317 318 317 316 319 321 318 314 314 313 313 313 313 313 313 314 314 313 313 314 314 314 314 314 315 314 313 313 312 313 313 313 315 316 321 321 325 330 331 337 337 334 336 339 339 334 327 329 333 334 335 334 334 334 333 332 332 333 332 329 327 325 324 324 324 324 324 324 323 323 324 323 322 324 326 325 324 323 322 322 321 319 317 316 316 315 314 314 313 312 310 310 308
315 321 334 329 319 320 318 317 319 321 320 313 312 313 314 314 313 313 313 313 314 314 313 314 314 314 314 314 314 314 313 313 312 312 313 313 313 318 322 324 326 325 329 342 342 334 336 341 340 335 328 325 334 339 335 334 334 334 333 332 332 333 333 332 330 328 325 324 324 324 324 324 323 323 323 323 323 325 326 325 324 323 322 322 322 321 320 319 319 318 318 317 316 316 315 314 314
319 330 331 322 321 322 320 319 315 316 320 313 311 313 314 315 314 313 313 313 314 313 313 314 314 314 314 314 314 314 313 313 313 312 313 313 312 315 318 322 326 322 322 332 333 327 326 332 332 328 324 324 333 338 333 332 333 333 333 332 332 332 333 333 332 330 327 326 326 325 324 324 324 323 323 323 324 325 326 325 324 323 323 323 322 322 322 321 321 321 321 320 320 319 318 318 318
319 329 330 322 322 319 314 315 311 312 316 312 312 313 313 315 314 313 314 313 313 314 314 313 314 314 314 314 314 314 314 313 313 313 312 313 312 314 314 316 320 320 317 318 319 317 316 319 320 318 322 332 335 334 332 332 333 333 333 333 331 331 332 333 333 331 329 329 328 327 325 324 325 324 324 324 325 325 325 326 324 324 323 323 324 323 323 323 323 323 323 323 322 321 320 319 319
313 323 331 323 317 313 310 312 312 313 313 312 312 312 313 314 314 313 313 313 312 314 315 313 314 314 314 314 314 314 314 314 313 314 313 313 314 314 315 315 315 317 317 315 314 315 315 315 317 315 321 334 339 337 334 333 335 334 332 333 332 331 332 332 333 332 332 332 331 330 327 325 325 325 325 325 325 326 326 326 325 324 324 324 324 324 324 324 324 324 324 324 323 322 321 320 319
312 319 327 316 310 313 313 313 313 313 313 313 313 313 313 313 314 313 312 314 314 313 314 314 314 314 314 314 314 314 314 314 313 314 314 314 316 316 316 316 315 316 315 315 315 314 315 315 318 317 317 325 332 336 334 331 333 333 331 333 332 331 332 332 333 333 332 332 332 332 329 326 325 325 325 324 325 327 327 327 326 325 324 324 324 325 325 325 325 325 325 324 323 322 321 320 319
313 313 315 311 309 314 314 312 313 313 312 313 312 313 314 313 313 313 312 315 316 314 313 314 314 314 314 314 314 314 314 314 314 313 314 314 316 318 317 317 316 316 315 315 315 314 315 315 316 317 316 319 321 326 330 332 335 333 331 332 332 331 331 331 332 333 332 331 332 332 331 328 326 325 325 324 325 327 328 327 326 325 325 324 324 325 325 325 325 325 325 324 324 323 322 321 321
317 313 310 310 311 313 314 312 313 313 313 313 312 313 314 313 313 313 312 314 315 314 314 314 314 314 314 314 313 313 313 313 313 313 313 314 316 318 318 317 316 316 315 314 314 314 313 313 314 315 316 318 318 318 322 331 337 334 333 334 331 330 330 330 331 331 330 330 331 332 332 330 328 327 326 324 326 329 329 328 327 326 326 325 324 325 324 325 325 325 325 325 325 324 323 321 321
319 317 311 311 312 313 314 313 313 313 313 314 313 313 313 313 314 313 312 314 314 314 314 314 315 315 314 314 314 313 313 312 313 313 313 313 314 316 316 316 316 315 314 313 313 313 313 313 313 313 314 316 318 319 320 328 334 331 330 331 330 330 329 328 329 330 330 330 331 332 332 332 330 328 327 326 328 330 330 330 328 327 327 326 325 325 325 325 325 325 325 325 325 325 323 322 321
318 317 312 312 313 313 314 313 313 313 313 313 313 313 313 313 313 311 313 314 314 314 314 315 314 315 314 314 314 313 313 313 312 313 313 313 313 314 315 315 315 313 313 312 313 313 313 313 313 313 313 314 315 319 321 324 327 325 324 328 332 333 332 329 329 330 333 332 331 332 331 332 331 329 329 328 329 330 330 330 328 328 328 327 327 327 326 326 326 326 325 325 325 324 324 323 322
314 315 313 313 313 313 314 313 313 313 313 313 313 313 313 312 312 313 314 314 314 314 314 314 315 314 314 314 314 313 313 312 312 312 312 312 313 313 313 314 313 313 312 313 313 313 313 313 313 313 313 314 314 318 321 323 326 327 328 332 334 332 331 333 332 331 332 332 331 331 331 332 332 331 331 330 329 330 330 330 329 329 328 327 327 328 327 327 326 326 326 325 324 324 324 323 322
313 313 313 313 314 314 314 314 314 313 313 313 314 314 313 311 312 315 316 315 314 314 314 314 315 314 314 314 314 313 313 312 312 312 312 312 312 313 313 312 312 312 312 313 313 313 313 313 313 313 312 313 315 319 320 322 328 331 329 330 330 329 330 332 331 330 329 329 330 330 331 331 331 331 330 330 330 330 330 330 330 329 329 328 328 327 327 327 326 325 324 324 323 324 323 323 322
313 313 314 313 313 313 313 313 312 313 313 312 313 313 312 311 312 315 315 315 315 313 314 314 314 314 314 314 313 313 313 312 312 311 312 312 312 312 312 312 312 312 313 313 313 313 313 313 313 313 313 312 315 321 321 320 326 330 327 326 327 330 331 331 329 328 328 329 329 329 329 330 330 330 330 330 331 330 329 328 329 329 328 327 327 326 326 326 325 325 324 323 323 323 323 323 321
313 314 317 318 319 317 313 312 311 312 314 312 312 313 315 314 313 315 314 314 315 313 314 314 314 314 313 313 313 313 312 312 312 311 311 311 312 312 312 312 312 312 313 313 313 313 313 313 313 313 313 312 314 320 322 320 323 328 329 328 330 330 329 328 328 328 329 330 328 327 328 329 330 330 330 330 329 328 327 326 327 327 325 324 325 326 326 326 325 324 323 323 323 323 323 321 318
315 313 315 322 325 322 312 310 311 311 313 312 312 317 326 323 314 312 314 314 314 313 313 313 313 313 313 313 312 312 312 312 312 311 311 311 311 312 312 312 312 313 313 313 313 313 313 313 313 313 313 312 315 321 323 324 325 327 330 329 330 330 328 329 330 330 330 328 326 324 326 328 329 329 328 328 327 326 325 323 324 324 324 324 325 325 325 325 324 324 324 323 323 322 320 316 311
319 312 319 326 319 323 318 309 311 313 312 311 313 318 325 326 316 311 313 313 313 313 313 313 312 313 312 312 312 312 312 312 311 311 311 311 312 312 312 312 312 313 312 313 312 312 313 313 313 313 313 313 317 321 322 325 325 324 327 328 328 330 329 331 330 330 330 327 326 326 327 327 327 327 326 325 324 324 324 323 323 324 324 324 324 323 323 324 323 323 323 322 320 317 314 309 306
324 313 324 327 316 329 327 308 309 314 312 310 313 319 321 321 314 311 312 313 313 313 313 313 312 313 312 312 312 312 312 311 311 311 311 312 312 312 312 312 312 312 312 313 311 313 313 313 314 314 317 317 317 322 322 325 326 323 327 328 327 328 328 328 327 328 329 328 328 327 328 326 326 325 323 323 322 323 322 323 324 323 323 323 323 322 322 323 321 321 319 316 313 310 307 305 305
328 317 323 327 319 327 325 311 308 310 311 311 313 318 323 320 312 310 312 311 312 312 312 313 312 313 312 312 312 312 312 311 311 311 311 312 312 312 312 312 312 312 312 312 311 313 313 315 317 316 321 320 319 325 327 328 328 324 326 326 325 325 325 326 325 325 327 327 327 326 327 326 325 323 321 321 321 320 321 322 322 321 321 322 322 322 321 319 317 316 316 310 306 305 304 304 305
326 318 320 325 322 320 322 321 311 307 311 314 313 314 319 319 311 310 312 311 311 311 312 313 313 313 312 312 312 311 311 312 311 311 311 312 312 312 312 311 312 312 312 312 312 313 313 318 319 315 321 322 321 326 324 325 326 323 324 324 324 325 325 326 325 324 325 325 324 323 325 325 323 322 321 321 320 320 321 322 321 320 321 321 321 320 317 314 311 311 312 306 303 303 303 304 304
324 323 323 322 320 317 322 326 314 309 313 315 315 315 316 316 312 310 311 311 311 312 313 313 312 312 313 312 312 312 312 312 312 311 311 311 311 311 312 311 312 312 312 312 312 313 314 318 320 317 320 324 324 324 321 324 327 325 326 326 326 325 324 326 325 323 323 322 322 322 324 323 322 321 321 322 321 321 322 321 321 320 319 318 318 317 313 309 307 305 305 302 301 302 301 302 302
325 330 334 327 323 321 323 326 315 310 313 316 316 316 316 316 314 312 310 310 310 312 312 312 312 312 312 312 312 312 312 312 312 311 310 311 311 311 311 311 311 311 311 312 311 314 314 316 319 320 321 323 325 324 321 324 328 327 328 327 325 323 322 323 323 322 322 322 322 323 323 321 321 321 320 321 321 320 320 319 318 318 317 316 314 313 308 304 302 300 300 300 299 300 300 300 301
324 328 330 325 322 324 324 323 314 307 313 320 317 315 315 315 315 311 309 309 308 309 309 309 311 312 312 312 312 312 312 312 311 310 310 310 310 311 311 311 311 311 311 311 311 312 314 316 320 321 320 319 322 324 323 324 326 326 327 326 324 322 322 323 321 321 323 322 322 321 321 320 320 319 319 319 318 317 317 316 316 316 314 311 309 307 303 300 299 299 299 298 298 299 299 298 299
325 324 322 321 322 324 322 318 315 309 313 321 319 316 315 314 314 310 308 308 308 309 309 309 311 312 312 312 312 313 312 311 311 310 310 310 310 310 310 311 311 311 311 311 311 311 312 317 321 319 318 318 320 323 323 324 325 324 324 325 323 322 322 323 322 321 321 321 321 320 319 318 318 317 317 317 317 316 316 316 314 311 307 305 304 302 300 299 299 298 298 298 298 297 298 297 298
325 323 318 321 322 321 320 318 315 312 313 321 322 318 315 314 314 311 308 309 310 311 312 312 313 311 311 312 312 312 312 311 311 310 310 310 310 310 310 311 310 310 311 311 312 311 312 317 321 319 319 321 321 321 321 323 323 321 322 324 322 321 320 321 321 320 320 320 319 318 316 316 316 316 316 316 315 315 314 312 308 303 301 301 300 300 299 299 298 297 297 297 297 297 297 296 296
323 322 320 324 322 320 322 320 317 315 313 318 322 318 315 315 315 314 311 310 311 312 313 312 312 312 312 312 312 312 312 311 311 310 310 310 310 310 310 310 310 310 310 311 312 313 314 316 319 320 321 322 320 319 321 323 322 320 322 323 322 321 320 319 319 319 318 318 316 315 314 315 315 314 313 312 311 309 307 304 301 300 299 299 299 299 298 298 297 297 297 296 296 296 296 295 295
322 321 321 324 323 321 321 320 319 319 316 316 320 321 321 321 319 319 314 310 311 311 312 313 313 313 312 311 311 311 311 311 311 311 310 310 310 310 310 310 310 309 310 311 312 313 315 317 317 318 320 320 318 318 321 323 322 322 321 321 321 320 318 317 317 317 316 315 314 313 313 312 311 309 307 305 304 302 301 300 299 299 299 298 298 298 298 297 297 296 296 296 296 296 295 295 295
324 322 320 321 322 321 319 320 320 323 325 318 315 322 331 330 326 325 323 321 321 314 309 311 314 313 311 311 310 310 310 310 310 310 310 310 310 310 310 310 310 310 310 311 311 313 317 319 317 316 318 318 317 317 320 322 322 321 319 319 320 318 317 316 316 315 314 313 312 311 309 307 304 303 301 300 300 299 299 299 299 299 298 298 297 297 298 297 297 296 296 295 295 295 295 295 294
324 321 318 317 316 317 317 319 320 325 328 316 313 323 328 325 324 326 328 330 329 318 310 311 313 313 312 312 312 311 310 310 310 310 310 310 309 310 310 310 310 309 310 310 311 314 317 319 317 316 317 319 318 318 319 320 319 319 319 319 319 317 316 316 314 314 313 312 310 306 304 302 300 299 299 299 299 299 299 299 298 298 298 298 298 298 298 298 297 297 296 295 295 295 295 294 294
326 318 316 317 316 318 319 319 320 323 323 317 318 325 323 321 323 325 324 324 324 322 320 315 312 313 314 314 314 312 312 311 310 310 309 309 309 310 310 310 310 309 309 310 311 314 315 316 316 316 318 319 320 319 318 319 318 318 319 319 318 317 316 316 314 313 311 309 305 302 300 299 298 298 298 298 298 298 298 298 298 298 299 299 299 298 298 298 297 296 296 295 295 294 294 294 294
323 313 314 317 317 321 322 323 323 321 321 321 320 320 322 326 327 323 319 320 324 326 326 319 312 313 314 314 314 313 312 311 310 310 309 309 309 309 310 310 310 309 308 309 312 313 314 316 317 316 317 318 319 319 319 319 319 319 318 318 317 316 316 315 313 312 309 305 302 300 299 299 298 298 298 298 298 298 298 298 299 299 299 300 299 298 298 297 296 296 295 295 294 294 294 293 293
314 309 314 317 318 321 323 326 326 323 323 324 322 321 322 324 326 324 319 322 327 324 322 317 311 313 315 313 313 312 311 310 308 309 309 309 309 309 310 309 309 310 308 309 312 314 314 317 318 317 316 316 317 318 318 318 318 318 317 316 315 315 315 314 312 310 306 302 301 300 299 298 298 298 298 298 298 298 298 298 299 299 299 299 298 298 297 296 296 295 295 294 294 294 293 293 292
310 315 322 322 323 323 324 325 323 323 326 324 323 322 321 322 326 327 323 324 325 322 325 322 312 312 315 313 313 312 311 310 308 308 308 308 309 308 309 309 309 309 307 309 313 315 315 316 316 316 315 316 317 317 317 318 317 316 315 314 313 313 314 313 312 309 304 301 300 299 298 298 298 298 298 297 297 298 298 299 299 299 299 298 298 298 297 296 295 295 294 294 293 293 293 292 292
314 327 328 323 326 324 324 325 322 325 326 321 318 317 318 321 325 327 324 323 321 319 326 329 317 313 314 313 313 312 311 310 309 308 308 308 308 308 309 309 309 309 308 308 311 314 316 315 315 315 316 316 317 317 317 317 315 314 314 313 312 312 313 313 312 308 303 301 300 299 298 298 298 298 297 297 298 298 298 299 299 298 298 298 298 297 297 296 295 295 294 294 293 293 292 292 291
319 328 325 323 326 324 324 325 322 324 321 314 313 316 317 319 321 322 322 323 324 316 315 319 315 312 314 313 313 312 311 310 309 309 308 308 308 308 309 309 309 308 308 308 309 312 316 316 316 316 317 317 317 317 317 315 315 314 313 312 311 312 312 312 311 306 302 300 299 299 299 298 298 298 297 298 298 298 298 298 298 297 297 298 297 297 296 296 295 295 294 294 293 292 291 291 291
319 323 324 325 325 326 332 328 320 320 319 313 311 316 319 320 321 320 319 319 319 313 309 312 312 312 313 312 312 312 311 311 310 309 309 308 308 309 308 309 309 308 309 308 308 311 315 316 316 317 317 317 316 316 316 315 314 313 311 310 311 311 311 310 308 304 301 300 298 298 299 299 298 298 298 298 298 298 297 296 296 296 296 296 296 296 296 295 295 294 294 293 292 291 291 290 290
318 321 321 323 326 329 335 331 325 323 322 316 312 317 324 326 324 319 313 310 311 313 312 311 311 312 311 310 310 311 311 311 311 310 310 309 309 309 308 309 309 309 309 308 308 310 313 314 314 315 316 316 316 316 315 314 313 312 311 310 310 309 309 309 305 301 300 299 298 298 298 298 298 297 297 297 297 297 296 296 295 295 295 295 295 295 294 294 293 293 292 292 291 291 290 290 289
317 318 319 321 324 326 323 320 320 320 321 320 316 319 324 324 322 316 310 310 310 310 310 310 312 311 309 309 309 310 311 312 311 310 310 309 308 308 308 308 309 309 309 308 308 309 312 313 313 314 315 315 315 315 314 313 312 312 311 310 309 308 308 307 303 300 299 298 298 298 297 297 297 297 297 297 297 297 296 296 296 295 295 295 294 293 293 293 292 292 291 291 290 290 289 289 289
317 316 321 318 315 324 324 315 311 312 318 322 319 321 323 321 321 318 315 318 317 312 309 309 310 310 308 309 309 310 311 311 311 311 309 309 308 308 308 308 308 309 309 308 308 309 312 314 314 313 314 314 314 314 313 312 312 312 311 310 309 308 307 304 301 299 298 297 297 297 297 296 296 296 297 296 297 297 296 296 296 296 295 295 294 293 292 292 291 291 291 290 290 289 289 289 289
319 320 321 315 312 322 325 320 319 319 322 324 321 321 323 321 322 319 315 317 319 319 316 310 307 307 308 309 309 310 311 311 310 310 309 308 308 308 308 308 308 308 309 308 308 309 311 313 314 313 313 313 313 312 312 311 312 312 310 309 308 307 305 302 300 298 298 297 297 296 296 296 296 296 296 296 296 297 297 296 296 296 295 294 293 292 292 291 291 290 290 289 289 289 289 289 288
316 319 316 317 321 323 321 321 326 325 324 326 323 319 319 319 321 321 318 320 322 321 318 315 311 308 307 308 309 309 310 311 310 309 309 308 308 308 308 308 308 308 309 308 308 309 311 312 312 311 312 312 312 311 311 311 312 311 309 309 307 305 303 300 298 297 297 297 297 296 296 296 296 296 295 296 296 296 296 296 296 295 295 294 293 292 291 291 290 290 289 289 289 289 288 288 288
312 313 312 317 322 322 320 320 322 324 324 326 325 321 320 320 321 323 321 323 327 323 320 320 314 310 310 310 310 310 310 311 311 310 310 309 309 308 308 307 308 307 308 308 308 309 312 312 310 310 312 313 312 310 310 311 312 310 308 307 306 303 300 298 297 297 297 297 296 296 296 296 296 295 295 295 295 295 295 295 296 295 295 294 293 292 291 290 290 289 289 289 288 288 288 288 287
315 317 316 317 317 317 320 319 318 323 326 326 326 323 322 323 321 324 321 321 324 324 325 322 311 309 313 313 312 312 311 311 312 311 311 310 309 308 308 307 307 307 308 308 308 309 311 312 310 311 313 313 311 310 310 311 311 309 307 306 304 301 298 297 296 296 296 296 296 296 296 295 295 295 295 295 294 294 294 295 295 295 294 294 293 292 291 291 290 289 288 288 288 288 287 287 287
316 317 317 317 316 317 320 318 316 319 321 324 325 322 323 325 320 321 323 321 318 315 316 315 311 311 314 314 313 312 311 312 312 312 311 310 309 308 307 307 307 307 307 308 309 308 309 310 310 311 313 312 311 310 310 311 310 307 305 304 302 299 297 296 296 296 296 296 296 296 295 295 295 294 294 294 294 294 294 294 294 294 294 293 293 292 291 291 290 289 288 288 287 287 287 287 286
Wind_Speed
3 3 5 6 5 4 3 3 3 4 4 3 2 1 2 3 1 1 1 2 1 3 5 7 7 8 6 7 7 8 7 3 3 3 3 4 7 8 7 7 7 12 15 13 12 11 11 11 13 12 10 11 10 8 8 7 8 7 7 6 7 8 9 9 8 9 8 9 9 9 11 13 15 15 15 16 16 17 17 17 16 15 16 16 17 16 14 13 12 11 10 9 7 6 5 5 7
3 5 6 7 5 2 1 4 2 3 5 3 2 2 3 2 1 4 2 0 4 6 13 15 13 11 8 8 8 8 8 7 4 4 6 7 7 7 6 7 9 12 15 14 12 11 11 10 14 14 11 11 10 9 8 7 8 7 7 6 7 7 8 9 8 8 8 9 8 8 10 12 14 14 15 16 17 18 18 18 17 17 16 16 16 16 15 14 14 13 12 11 10 8 7 6 8
5 6 6 5 5 4 3 4 2 2 5 2 3 3 2 1 3 6 4 4 9 11 11 10 9 7 5 5 5 4 4 5 5 6 7 8 6 6 6 8 11 13 15 14 12 12 10 9 11 13 11 11 9 8 9 7 7 7 8 7 6 7 8 8 8 8 8 8 7 7 10 12 13 14 15 16 18 19 20 19 18 17 17 16 16 16 16 15 14 14 14 14 13 11 9 8 9
5 6 6 4 4 4 4 4 2 4 3 2 2 4 2 2 6 6 3 5 10 9 5 4 5 5 5 4 4 4 3 2 3 5 6 7 6 7 7 9 11 13 15 14 12 11 10 9 8 10 10 10 9 8 8 7 6 6 6 7 6 6 7 8 8 8 8 8 7 7 9 12 12 14 15 17 18 20 20 20 19 18 17 16 16 16 16 15 15 15 15 14 14 13 12 11 11
5 5 4 2 2 2 3 3 3 4 2 4 2 4 4 5 6 4 0 4 11 8 3 3 3 4 6 5 3 2 2 2 2 3 5 6 6 7 9 10 12 14 15 14 13 11 10 9 8 9 8 8 8 7 6 6 5 5 4 5 6 6 7 7 7 8 8 7 6 6 9 11 12 13 14 16 18 19 20 21 20 19 18 17 16 16 16 15 15 14 14 14 14 13 13 13 13
5 6 4 4 5 3 3 3 3 2 3 5 3 4 5 7 5 2 4 7 8 8 4 3 4 5 5 5 4 2 2 3 2 3 5 6 6 8 8 9 12 14 15 14 13 11 10 9 8 8 7 7 7 5 5 4 4 4 3 4 6 7 6 6 6 7 7 6 5 5 8 10 11 12 13 15 16 18 19 20 20 19 18 17 16 15 16 15 15 14 14 14 13 13 13 13 14
6 6 5 6 6 4 3 4 3 2 2 4 2 4 6 7 6 4 4 6 5 5 5 5 8 7 4 3 3 2 3 3 3 4 5 6 7 8 8 9 11 13 15 14 13 11 9 7 5 7 7 5 5 5 5 4 4 4 3 3 6 6 6 5 5 6 5 5 5 5 6 8 10 11 12 13 15 16 18 19 19 19 19 17 16 15 15 15 14 14 13 13 13 13 13 14 14
6 3 4 5 4 5 4 3 2 2 1 3 4 4 4 5 7 2 0 3 3 3 7 9 7 3 2 2 1 3 4 4 5 5 6 7 8 8 8 9 12 14 15 14 13 11 10 8 5 5 5 5 4 5 5 4 4 4 3 3 5 6 5 3 3 5 4 4 4 5 5 7 8 10 10 11 13 15 16 17 18 19 18 17 16 14 14 14 14 14 13 13 13 13 14 14 13
6 3 4 5 3 3 3 3 0 2 2 4 4 4 2 4 6 2 2 3 3 5 8 7 2 1 4 4 2 5 5 6 6 6 6 7 8 9 8 10 12 14 15 14 12 11 10 9 7 5 5 5 6 6 5 4 4 3 4 4 5 6 5 3 2 3 3 3 4 4 4 5 6 8 9 10 12 13 14 15 16 18 18 17 16 14 14 14 14 13 13 13 13 13 14 14 13
4 4 4 4 3 4 3 1 1 1 3 4 5 4 1 5 5 2 3 4 5 5 5 4 1 2 6 5 3 5 6 7 8 7 7 7 8 10 9 9 11 13 14 14 13 11 10 9 8 7 6 6 7 6 5 4 3 4 5 5 6 6 5 3 2 2 2 3 3 3 4 4 5 6 7 8 10 11 12 13 14 16 16 16 15 14 14 13 13 13 12 12 13 13 13 13 13
3 4 5 5 4 2 2 3 2 3 3 5 5 3 1 5 5 3 4 5 5 5 5 2 2 8 8 4 5 6 6 8 8 8 8 7 9 10 10 9 10 12 13 13 12 11 10 9 9 8 7 6 7 6 5 4 3 4 5 5 5 6 5 4 3 2 2 2 2 3 3 3 4 5 6 7 8 10 11 12 13 14 15 15 15 14 13 13 13 12 12 12 12 12 13 13 12
2 2 4 4 3 3 3 4 3 4 5 5 2 2 1 6 7 4 5 6 5 5 4 2 4 10 6 1 6 7 8 9 9 9 8 8 9 10 11 10 9 11 14 15 13 13 12 11 11 10 9 8 7 6 6 6 4 4 5 4 4 4 5 4 3 2 2 1 1 2 2 2 3 4 5 6 7 9 10 11 12 13 14 14 14 14 13 13 12 12 11 11 11 11 12 12 12
3 2 5 4 3 3 4 4 2 3 4 4 4 1 1 7 6 8 10 7 5 5 2 3 9 9 3 2 6 10 10 9 9 9 9 9 9 9 10 11 9 9 11 13 12 10 9 11 12 11 11 10 9 8 7 7 5 5 5 4 3 3 4 4 4 3 2 1 0 0 1 1 2 3 4 5 6 8 9 10 12 12 13 14 14 13 13 12 12 12 12 11 11 11 11 11 11
5 5 5 3 2 3 4 3 1 2 3 5 4 2 3 4 4 11 12 6 3 4 4 8 12 5 2 4 6 13 12 10 10 8 9 9 9 9 10 11 9 9 8 7 9 9 8 6 9 12 12 11 9 9 8 8 6 6 5 3 3 3 4 4 4 4 3 2 2 2 1 1 1 2 2 4 5 7 8 9 11 12 13 13 13 13 13 12 12 12 12 12 12 11 11 11 11
7 7 6 4 3 1 3 2 2 5 4 5 4 4 4 4 5 10 8 4 4 6 7 9 11 4 3 5 5 13 15 12 11 9 9 9 9 9 10 11 10 12 10 7 8 12 11 7 9 10 12 13 11 10 9 9 9 8 6 5 3 3 4 5 5 5 5 4 4 3 2 1 1 1 1 3 5 6 6 8 10 10 12 13 13 13 14 14 13 14 14 13 13 12 12 12 12
7 6 5 4 2 2 3 2 3 3 5 5 7 5 5 4 6 7 4 4 6 8 8 8 11 6 4 7 6 11 15 13 11 10 10 10 10 11 11 12 11 13 11 11 12 13 13 12 14 12 11 14 12 11 11 11 11 10 8 7 6 5 5 6 5 6 6 6 5 4 3 2 2 2 1 2 4 4 4 7 8 9 11 12 12 13 14 14 15 15 15 15 15 14 13 13 13
6 5 5 3 3 4 4 4 4 4 5 5 7 8 5 3 4 4 3 5 7 9 9 7 11 11 7 8 8 11 15 13 12 11 11 11 12 13 14 13 13 14 13 16 18 17 16 16 18 16 13 13 12 13 16 15 13 12 11 10 8 7 8 7 6 7 7 7 6 5 5 4 3 3 1 1 2 2 3 5 7 7 9 10 10 11 12 13 14 15 15 16 15 15 14 13 13
4 4 4 3 4 4 6 7 7 4 3 7 9 9 6 4 5 5 3 4 6 8 9 9 10 12 10 10 9 10 15 15 12 12 13 13 14 14 15 15 16 16 15 18 20 19 18 18 20 20 16 13 13 16 18 16 15 14 13 12 11 9 9 8 7 8 9 8 6 6 6 6 4 3 3 2 1 1 2 4 5 6 8 9 9 9 10 11 11 12 13 13 14 13 13 12 12
4 4 4 3 6 4 6 8 10 3 1 8 9 8 7 5 7 7 3 2 5 5 7 9 10 11 11 11 11 11 14 15 13 12 13 13 14 14 13 14 15 16 15 15 17 17 16 17 17 17 15 13 14 18 17 15 15 15 15 14 13 12 10 10 10 10 10 8 6 6 8 8 6 5 4 3 2 1 1 3 4 5 7 8 8 8 8 8 8 8 9 10 11 11 10 10 10
2 4 3 4 6 3 4 7 11 5 2 10 9 8 7 5 8 7 4 2 3 6 9 10 11 13 12 12 12 12 14 14 14 13 13 13 13 13 12 12 13 15 15 15 15 14 14 14 14 15 15 16 17 18 18 16 15 16 16 15 15 13 12 12 12 12 11 9 8 7 9 9 8 7 5 4 3 3 0 2 2 4 6 6 7 7 6 6 6 6 7 8 8 9 9 9 8
2 4 3 5 5 2 3 6 8 7 4 9 9 7 6 6 9 8 6 3 4 11 14 14 12 11 11 13 13 13 14 14 15 14 14 14 12 12 12 12 11 12 13 13 14 14 14 14 15 16 15 18 20 20 20 18 18 19 17 17 16 14 13 14 14 13 12 10 9 9 10 10 10 9 8 7 5 5 3 2 2 3 5 5 5 5 5 4 5 6 6 6 7 8 8 8 7
4 2 2 5 5 2 3 5 7 8 7 9 8 7 5 7 9 9 9 6 6 9 10 12 12 11 11 12 14 14 15 15 15 15 15 14 13 12 12 12 11 11 11 11 12 12 12 13 15 17 16 17 18 21 20 17 19 21 18 18 18 16 16 16 16 16 14 12 11 10 11 12 12 11 9 8 6 7 6 4 4 4 4 5 5 4 3 2 3 5 5 5 6 7 8 8 7
3 2 1 6 3 1 3 5 7 9 9 9 7 5 5 6 6 8 13 14 13 9 8 8 10 12 13 12 14 15 15 16 15 15 14 14 13 13 12 12 12 12 12 12 12 12 12 12 14 16 17 18 18 19 19 19 21 19 16 18 19 19 19 19 19 17 15 13 12 13 14 13 13 12 11 10 10 11 9 7 6 6 5 5 5 4 3 2 1 2 2 3 4 5 6 6 7
5 2 1 5 2 2 3 5 7 8 6 6 6 5 5 6 5 6 13 19 18 16 14 12 11 11 13 13 14 15 15 15 15 15 14 14 14 14 13 13 13 13 13 13 14 13 14 14 14 15 16 18 19 19 18 23 24 19 18 19 17 18 19 20 19 15 14 13 13 14 15 15 14 13 12 12 13 15 13 10 8 7 6 5 4 3 2 3 2 1 1 1 2 2 3 5 7
5 3 2 3 1 1 4 6 6 6 4 4 5 5 5 7 6 7 14 17 16 18 17 15 13 11 13 14 15 15 15 15 15 15 15 15 15 14 14 14 14 14 14 14 14 14 14 15 16 17 18 19 19 19 19 21 21 18 18 19 19 19 17 17 16 14 15 16 14 12 12 14 14 13 13 13 16 19 16 12 9 6 6 6 5 3 4 7 8 6 4 2 0 1 2 5 7
2 4 4 2 1 0 4 7 6 6 5 4 5 5 5 6 5 10 18 18 15 17 16 16 13 12 13 14 15 15 15 15 15 16 16 16 15 15 14 14 14 14 14 14 14 14 14 15 16 17 20 21 20 20 19 18 17 16 17 19 21 20 17 16 17 16 16 15 13 11 10 11 12 12 12 11 14 19 16 12 11 9 8 7 6 4 6 9 10 8 7 3 1 2 1 5 8
3 5 4 2 0 1 3 7 6 6 6 6 6 4 5 4 2 7 14 14 16 16 14 15 13 13 14 15 16 15 15 15 16 16 17 17 16 16 16 15 15 14 15 14 13 13 13 13 15 17 20 22 22 21 19 19 18 18 19 19 17 16 18 20 20 17 14 12 12 10 9 9 10 9 7 5 8 12 12 11 11 12 9 8 8 6 6 10 11 8 6 4 3 2 2 6 8
4 3 2 2 3 3 4 5 6 6 4 7 8 3 3 2 3 11 13 11 13 15 14 15 15 15 15 16 16 16 16 16 17 18 18 18 17 17 17 16 15 15 15 13 12 12 12 12 14 15 18 21 22 22 20 21 21 20 20 19 19 19 19 19 18 14 11 11 11 9 9 9 7 6 5 6 7 8 8 9 10 11 8 7 8 6 7 10 9 6 4 3 2 2 3 6 7
5 5 1 5 8 3 3 2 5 6 2 4 6 2 4 4 9 15 12 11 13 13 15 16 16 17 17 17 17 17 17 18 19 19 19 19 18 18 17 16 16 15 14 12 11 11 11 12 13 14 17 20 21 22 21 19 20 20 19 18 19 20 18 16 15 14 12 11 10 10 10 8 6 5 7 9 9 8 8 8 8 6 5 5 4 2 4 6 6 5 4 2 2 3 4 6 6
2 4 2 3 8 5 2 1 3 6 2 3 7 3 6 7 14 14 9 12 14 15 17 18 18 19 19 19 19 19 19 19 19 19 20 20 19 19 18 16 15 14 12 11 11 11 11 11 12 13 15 18 19 20 19 17 19 20 19 18 14 13 15 14 15 16 14 11 11 11 10 7 5 5 7 8 7 6 7 7 5 4 3 3 2 1 1 3 3 3 2 1 2 3 4 4 4
1 2 2 3 2 4 5 1 5 6 3 5 7 2 7 8 10 9 11 13 15 17 18 19 20 20 21 21 21 21 20 19 19 19 21 21 20 19 18 16 13 13 11 10 10 11 11 10 10 12 13 16 17 18 18 20 21 18 21 23 18 13 13 13 12 11 10 8 10 11 10 7 4 5 5 4 3 3 4 5 5 4 3 3 2 2 3 4 3 2 1 1 2 2 2 2 3
3 1 3 3 1 5 8 1 7 4 2 6 6 2 7 9 9 6 11 14 15 18 18 19 21 21 22 22 22 22 21 20 20 21 22 21 21 19 18 15 13 12 11 10 10 10 10 9 9 9 11 12 14 16 18 21 19 16 20 23 20 17 15 12 11 9 8 9 8 9 9 6 5 5 3 2 2 2 3 5 6 5 3 3 4 4 5 6 6 3 2 2 1 1 3 5 7
4 1 2 2 1 3 6 1 4 2 2 4 3 2 4 4 5 3 9 15 16 18 19 20 22 23 24 24 24 24 22 22 22 23 23 22 21 19 17 15 13 13 12 10 9 9 9 8 8 9 12 12 13 17 17 19 18 17 19 18 16 16 16 18 18 15 13 12 10 7 5 6 7 5 2 2 2 1 2 4 7 5 4 6 5 4 6 7 7 3 2 3 2 3 6 7 9
4 2 1 3 2 2 3 3 2 1 2 3 2 3 7 7 6 5 6 11 15 19 22 22 23 24 25 25 26 25 25 25 25 25 24 23 21 19 17 15 14 13 12 10 9 9 8 9 11 9 14 15 14 20 18 18 21 21 21 20 16 14 13 16 16 13 12 13 12 11 8 8 7 2 2 3 2 2 5 6 7 7 7 8 6 5 6 7 7 3 2 7 7 6 8 8 9
3 2 1 3 2 2 4 4 2 1 1 3 3 4 10 12 13 14 10 11 16 21 23 23 24 25 26 27 28 28 28 28 27 26 25 23 21 19 17 15 14 13 12 10 8 9 9 12 14 9 14 17 16 19 17 17 23 21 19 20 17 12 10 12 10 6 6 8 9 11 10 8 5 1 2 4 5 7 9 10 10 9 8 7 5 4 6 7 8 6 6 8 9 8 7 8 9
5 5 4 4 3 4 6 5 4 2 1 4 6 7 10 11 13 15 13 12 18 23 24 25 25 26 28 29 31 30 30 30 27 26 25 24 21 19 18 16 15 14 12 10 8 10 10 12 15 12 14 17 17 19 18 18 22 20 18 18 14 9 12 15 9 4 5 7 9 10 9 6 4 4 5 8 9 9 8 7 7 7 6 5 5 6 8 10 9 8 8 8 7 7 7 7 7
6 5 4 4 3 4 5 4 5 1 2 6 7 7 10 10 11 15 15 11 15 22 24 27 29 30 32 32 33 33 32 31 27 26 26 24 22 20 19 17 16 14 12 11 9 11 13 13 16 16 15 16 16 19 20 19 18 16 16 16 11 9 13 16 11 6 8 11 11 10 8 6 7 8 10 10 9 7 6 6 7 8 7 6 7 9 10 10 9 8 7 7 6 5 5 6 6
5 5 3 1 3 6 6 3 4 1 2 5 5 5 10 10 11 17 17 9 14 24 25 29 32 33 35 35 35 34 32 31 29 28 27 26 24 22 20 18 17 15 12 11 10 10 14 17 18 17 16 18 18 18 18 18 15 12 13 14 13 11 11 12 10 8 11 12 11 10 9 11 12 11 12 11 8 7 7 9 10 10 10 9 9 10 10 9 8 7 6 5 5 4 4 5 4
4 4 3 2 3 5 6 4 5 2 2 4 5 5 9 10 10 16 21 17 20 29 30 32 33 32 35 36 36 35 33 33 32 31 29 27 26 23 21 19 17 15 13 12 12 11 14 19 20 17 17 21 21 17 17 18 16 14 15 15 15 14 11 11 10 11 13 13 12 12 13 14 14 12 12 11 10 10 10 12 13 12 11 9 8 9 9 8 7 7 6 5 5 4 3 4 3
2 4 3 3 3 2 4 4 4 3 1 2 5 7 8 8 9 13 22 23 24 31 32 33 33 32 35 35 34 34 34 35 33 32 32 29 28 25 23 21 18 16 15 14 14 14 15 18 19 17 18 20 18 15 18 20 18 16 15 15 14 13 12 12 13 14 15 15 14 14 15 15 14 13 14 13 13 13 13 13 13 12 11 9 7 7 7 7 7 7 6 5 5 3 3 3 3
3 4 6 4 4 5 5 4 4 3 3 3 4 8 8 6 7 10 11 11 17 26 27 30 36 36 35 32 31 32 32 33 34 34 33 32 30 27 24 22 19 17 16 15 16 16 17 18 17 17 18 17 14 13 18 22 20 16 14 13 14 12 11 13 15 16 17 15 14 15 17 16 16 16 17 16 15 15 14 13 12 11 10 10 9 7 7 8 7 6 6 5 4 3 3 2 2
5 4 8 9 7 5 3 3 5 4 4 4 4 4 6 4 4 8 6 4 9 14 14 23 32 29 28 30 31 31 30 31 32 32 33 33 31 28 25 23 21 19 17 17 16 17 18 20 18 17 18 18 16 14 17 21 18 14 13 14 16 13 12 14 15 16 16 15 16 19 20 19 19 18 18 17 15 14 13 12 11 10 9 10 9 7 7 7 7 6 6 5 3 3 3 2 2
3 4 7 8 5 3 2 1 2 1 4 3 3 1 7 6 4 7 6 6 10 10 9 20 26 23 23 26 28 29 29 30 30 31 32 33 32 30 27 24 22 20 19 18 17 18 19 20 18 17 18 22 22 18 17 19 16 15 15 16 15 12 12 14 15 15 16 18 20 22 22 22 21 19 18 17 15 13 12 12 11 9 9 9 8 7 7 7 6 5 5 4 3 3 3 2 1
3 4 4 6 6 5 5 4 2 3 3 4 2 4 3 8 6 5 4 5 10 13 13 17 19 18 20 22 24 26 28 29 30 31 33 34 33 31 28 25 22 20 19 18 18 20 20 19 18 17 17 20 23 21 19 19 17 17 17 16 13 10 11 13 15 17 19 21 23 24 23 23 21 19 17 16 15 13 12 11 10 9 8 8 7 7 6 6 5 5 5 4 4 4 4 3 3
4 2 6 6 6 5 5 5 2 1 3 4 1 4 2 8 6 4 4 2 8 14 15 11 9 12 15 17 20 23 25 27 28 29 31 32 33 31 27 24 22 21 19 19 20 20 21 22 21 18 17 18 20 21 20 19 17 16 17 15 11 11 14 16 17 20 22 24 25 25 24 23 21 19 18 16 14 13 12 10 10 9 7 7 7 6 6 6 6 5 5 5 5 5 5 5 5
4 6 7 6 6 5 5 4 3 3 3 5 5 6 3 6 4 1 2 2 8 12 11 8 8 10 10 11 14 18 22 24 25 26 28 30 31 30 27 24 23 21 19 20 21 21 20 23 23 20 19 19 19 19 18 17 17 16 15 13 12 14 18 19 20 23 25 26 26 26 24 23 21 20 18 16 14 13 12 10 9 8 7 7 7 6 6 6 6 6 6 6 6 6 6 6 5
9 7 6 6 6 5 4 2 4 2 5 6 7 10 6 4 4 4 4 4 7 7 6 7 7 6 5 6 9 13 18 21 23 25 25 28 30 29 28 26 24 22 20 22 24 24 22 22 22 21 21 21 21 19 18 18 17 16 15 14 14 17 21 22 23 26 28 29 28 26 25 23 22 20 18 16 15 13 11 10 8 7 6 7 6 6 6 6 6 6 6 6 6 6 5 4 4
7 5 4 4 3 4 4 4 4 1 6 5 3 4 5 6 6 4 6 7 6 6 5 6 6 5 4 6 7 10 14 18 21 24 25 28 31 31 30 28 26 25 24 24 26 27 27 25 23 23 23 24 24 21 21 22 20 19 19 18 17 18 21 23 25 28 30 30 29 27 26 24 22 20 18 16 15 13 11 9 8 7 6 6 6 5 5 4 5 4 5 5 5 5 4 3 3
4 4 6 4 2 3 3 3 1 2 6 3 2 1 2 8 8 7 12 12 9 10 11 12 12 12 10 9 8 9 12 16 20 23 25 29 33 34 33 31 28 27 26 27 27 29 30 29 26 24 24 25 25 23 24 24 21 20 20 19 19 19 21 24 26 29 31 30 28 26 25 23 22 20 19 17 15 13 11 9 8 8 6 6 5 4 3 3 3 3 4 4 4 4 3 2 2
5 5 6 4 2 1 3 3 2 4 5 3 2 2 3 5 5 10 16 16 15 14 16 17 17 17 15 11 9 9 11 15 19 23 26 30 34 35 35 32 30 29 28 28 28 30 31 30 27 25 25 26 26 25 25 23 21 20 19 19 21 21 23 25 27 30 30 28 27 25 23 21 20 19 18 17 15 13 12 10 9 7 6 5 3 2 1 1 2 2 3 3 4 3 3 3 3
5 3 5 5 5 5 4 4 4 5 3 3 3 1 4 3 3 7 12 13 17 20 21 19 18 20 18 14 13 13 14 15 19 23 27 30 33 35 35 33 31 29 29 29 30 31 31 30 28 26 25 27 27 27 25 23 22 21 20 21 22 23 24 26 29 30 29 27 26 24 21 20 19 18 17 16 14 13 11 10 8 7 5 4 3 1 0 1 2 2 3 3 3 3 4 4 4
3 2 4 3 5 5 2 3 5 2 2 3 2 4 5 4 6 9 9 10 13 18 20 20 23 23 19 17 18 17 18 19 21 25 28 31 34 36 36 34 31 30 30 30 30 31 32 32 31 28 25 26 27 27 25 24 24 23 22 22 23 24 26 28 31 31 29 26 24 23 21 20 19 18 17 16 14 12 11 9 7 6 4 3 2 1 2 2 2 2 3 3 3 4 5 5 5
2 3 3 4 4 6 4 2 1 3 2 4 2 4 5 3 8 9 7 8 9 10 12 16 21 19 16 18 19 18 20 21 24 26 28 31 34 36 36 34 32 30 31 31 31 31 32 33 32 31 28 27 27 27 26 26 26 25 24 24 25 26 28 30 32 31 28 26 24 23 22 21 20 18 16 15 13 12 10 8 6 5 3 2 2 2 3 3 2 3 3 4 5 6 6 7 6
5 4 6 3 2 4 4 1 3 3 3 5 1 5 5 3 6 5 0 6 10 9 10 12 14 14 17 21 19 17 18 20 24 26 28 31 33 36 36 34 32 31 30 31 31 31 32 32 32 32 31 30 29 28 29 29 28 26 25 26 27 28 30 32 32 30 28 26 25 24 23 21 20 18 17 15 13 11 10 8 7 5 4 3 3 3 4 4 3 4 4 5 7 7 8 8 7
4 4 5 4 2 2 2 2 2 1 3 5 3 4 4 5 6 2 2 9 11 11 11 9 10 15 21 23 20 17 18 20 24 27 29 31 33 35 36 35 33 31 30 30 30 31 33 33 32 32 31 31 30 29 30 30 28 26 27 28 29 30 32 33 32 30 28 27 26 25 23 21 20 19 17 15 14 12 11 9 8 7 5 5 4 4 4 4 4 5 5 6 8 8 9 9 8
3 2 2 2 2 3 3 3 3 3 2 3 3 4 5 7 7 6 9 12 11 11 10 8 13 20 22 22 21 20 20 21 23 26 28 30 32 34 35 34 33 31 31 30 30 32 34 35 33 32 32 32 31 31 31 30 28 27 28 29 30 31 33 34 32 30 29 27 26 24 23 22 21 19 18 16 14 13 11 10 9 7 6 6 5 5 5 4 4 5 6 7 8 9 9 9 9
3 3 4 2 1 2 1 1 2 4 3 2 2 6 9 5 5 8 11 11 10 10 9 8 14 19 18 18 19 18 19 21 21 24 26 28 31 33 34 33 32 31 31 31 32 34 35 36 34 33 33 33 33 32 31 30 28 28 30 31 31 33 35 34 33 31 29 28 26 25 24 23 22 20 18 17 15 14 13 11 9 8 7 6 6 6 4 4 5 6 7 8 8 9 9 9 9
5 6 7 7 5 4 2 2 1 3 2 4 3 7 12 5 4 7 8 7 8 9 8 9 13 17 16 14 14 14 16 18 20 22 25 27 30 32 33 33 33 33 33 34 34 35 36 36 34 34 34 33 32 32 31 29 28 29 31 32 32 34 35 35 34 32 30 29 27 26 25 24 22 21 19 18 16 15 14 12 11 10 8 7 7 5 5 5 6 7 7 8 8 9 9 9 9
Wind_Direction
64 93 101 109 104 110 76 70 88 20 68 84 334 57 227 227 223 173 319 322 30 9 64 100 109 117 111 101 115 97 68 88 149 104 131 164 148 155 164 167 169 162 164 160 160 164 154 150 147 142 140 131 124 121 115 106 99 98 101 102 101 105 109 107 103 91 81 70 59 57 59 57 52 46 42 40 43 46 48 49 49 51 52 52 53 55 57 59 61 63 66 69 70 66 52 29 21
100 114 113 115 77 94 128 53 89 352 50 74 281 174 249 299 91 177 183 125 148 107 88 92 92 96 91 88 87 75 54 43 70 95 120 136 142 157 167 170 165 160 162 161 164 166 163 167 153 145 145 136 131 127 119 112 106 104 108 111 110 113 117 112 105 93 83 73 59 62 66 63 59 51 44 44 48 49 48 47 47 48 50 53 55 57 60 63 65 66 67 68 68 65 55 36 27
114 123 116 117 64 75 123 46 78 69 68 105 266 242 282 30 183 202 183 139 140 122 97 86 77 66 57 64 47 54 73 51 66 94 118 134 143 156 166 166 161 159 162 163 166 168 167 171 156 145 144 136 132 128 118 112 106 108 118 124 125 124 124 117 106 95 81 71 61 67 69 63 60 52 47 48 50 49 47 46 45 45 47 51 54 57 60 63 65 67 68 68 67 65 60 48 39
118 130 111 107 83 69 79 43 112 113 106 178 255 259 265 172 197 216 192 148 160 144 105 84 68 48 49 68 60 66 109 85 77 105 127 135 142 156 158 161 161 158 162 165 167 170 165 166 165 151 145 136 131 129 119 109 103 103 116 129 138 137 129 120 107 97 81 70 66 71 66 59 56 52 50 49 48 46 45 44 44 44 45 48 51 54 57 60 63 64 66 67 66 65 61 56 51
118 131 118 103 95 62 86 75 102 95 172 184 161 254 253 202 197 228 178 139 182 175 129 108 90 90 78 72 81 86 121 136 126 127 140 135 139 152 155 162 162 158 162 168 168 169 169 172 173 157 153 146 136 131 122 106 97 97 108 127 142 147 135 121 107 97 81 71 69 72 64 55 56 54 52 50 46 42 41 42 42 42 44 46 50 53 55 58 61 63 63 65 65 63 61 59 56
118 109 107 102 86 81 108 91 89 79 209 171 139 248 239 205 193 178 108 103 165 176 162 139 130 131 94 66 82 111 137 138 163 162 149 139 143 150 155 161 159 160 165 170 170 168 177 182 172 164 167 155 144 142 129 103 88 89 99 127 148 154 141 125 108 96 79 71 67 68 65 57 58 56 53 50 43 39 40 42 42 42 44 47 51 54 56 58 60 62 63 64 64 63 63 61 60
128 101 92 100 67 48 97 108 145 141 189 171 171 225 214 195 175 150 118 99 126 162 170 143 131 124 97 90 90 145 166 152 161 162 152 144 149 152 156 158 156 162 167 172 173 170 183 186 168 174 173 155 158 158 140 118 102 89 91 128 154 160 151 135 109 97 82 71 59 58 68 61 58 56 54 48 40 38 40 41 43 43 45 48 53 56 59 60 62 64 64 64 64 65 65 65 64
139 118 85 97 41 30 88 96 169 178 174 223 243 228 209 176 168 169 102 122 119 141 148 137 129 107 142 165 163 187 177 174 165 162 159 148 153 155 158 159 156 164 170 174 175 172 182 184 172 184 173 163 185 179 159 138 120 99 96 120 153 164 158 148 109 97 87 72 57 53 66 64 56 52 51 44 39 40 39 41 44 44 46 49 54 59 62 63 64 66 66 66 66 66 67 69 68
127 119 86 88 69 41 56 44 219 229 266 270 266 246 220 163 176 186 92 103 109 135 148 150 127 22 177 172 180 187 186 186 174 168 165 156 160 158 159 160 158 165 172 175 177 179 183 183 180 186 185 185 193 188 171 148 135 121 109 116 145 165 168 170 119 98 88 69 59 55 59 61 55 49 48 43 41 41 40 41 43 45 47 51 55 61 66 67 67 68 68 68 67 68 70 72 72
100 94 106 85 78 52 37 20 250 254 262 276 273 256 201 178 182 159 129 109 117 134 153 183 208 151 162 162 161 182 188 186 180 175 171 166 162 161 164 163 161 164 173 177 177 183 186 187 187 186 194 200 195 193 184 163 148 133 119 120 142 164 174 185 155 116 98 72 63 60 55 55 52 49 48 45 44 42 41 43 43 45 47 52 58 63 68 71 71 72 72 71 71 72 74 75 76
78 67 102 81 74 94 167 197 249 268 273 304 288 254 217 191 179 140 130 122 132 132 142 168 186 155 148 162 176 184 189 185 186 180 175 174 164 164 170 170 168 165 169 176 181 189 190 189 193 195 197 206 204 200 193 181 165 144 129 124 143 166 176 187 179 136 114 83 70 65 53 53 51 48 49 47 45 41 40 43 43 44 47 51 58 66 71 74 75 76 77 78 78 78 79 79 80
112 38 81 85 117 165 188 165 215 279 312 326 264 242 242 183 173 165 151 138 140 128 140 161 172 156 136 202 191 187 191 187 188 186 184 181 172 169 176 181 179 171 168 177 188 191 191 190 192 200 202 207 209 206 208 203 191 164 147 142 153 167 176 191 198 163 142 101 60 58 49 56 54 45 45 45 43 41 41 42 41 42 46 49 56 65 72 77 78 79 78 79 81 81 83 82 82
151 124 88 94 140 147 147 142 213 310 327 277 204 221 182 178 185 181 161 140 142 132 129 154 160 160 152 209 197 194 194 193 189 188 191 193 187 177 183 192 187 180 177 180 186 190 196 194 194 201 202 206 208 202 213 209 198 188 177 172 174 176 180 197 211 188 173 168 206 340 30 52 56 48 43 40 39 41 42 41 40 41 46 46 53 62 68 74 78 79 78 76 76 76 78 79 79
143 128 98 107 103 107 138 135 211 173 248 251 212 212 180 184 191 175 157 134 164 154 138 150 156 160 194 196 212 202 197 197 192 192 196 200 201 189 191 202 190 185 196 184 179 200 216 206 201 207 202 206 214 204 210 213 206 205 205 209 199 187 187 199 213 208 198 196 221 249 298 341 39 49 45 36 33 39 41 42 41 43 47 44 47 56 62 67 72 75 75 74 73 71 72 71 71
131 112 88 104 82 89 161 168 155 154 226 229 186 199 166 148 148 165 163 147 183 160 149 160 167 177 201 199 223 205 201 202 195 199 206 207 213 207 204 209 192 186 211 215 191 204 215 215 219 218 205 204 212 209 212 218 217 214 220 236 215 194 204 206 212 215 212 216 231 242 261 283 333 5 44 35 30 39 43 42 43 47 51 48 45 51 59 64 67 70 69 68 67 65 65 64 63
120 105 77 89 114 171 174 168 125 129 241 214 171 169 138 135 143 163 187 163 169 164 167 179 188 207 214 214 234 207 202 205 202 208 217 222 222 218 217 219 203 191 203 208 204 209 206 203 213 220 214 208 207 214 220 219 221 221 224 235 218 203 210 213 216 219 220 224 236 245 253 269 297 309 4 25 28 42 53 49 46 53 59 58 54 53 59 65 67 67 66 64 62 60 59 59 60
106 91 69 84 152 189 183 173 168 163 231 219 177 171 146 158 166 163 177 163 170 175 185 198 204 218 237 237 239 214 203 205 208 213 221 230 230 222 217 220 217 209 198 190 202 216 207 199 210 222 221 207 201 216 226 220 221 224 229 233 222 212 210 217 225 224 225 227 238 249 254 258 273 287 308 355 27 37 64 62 56 66 73 72 69 65 64 66 66 65 64 62 60 58 56 55 56
89 101 88 136 171 195 186 178 188 166 196 198 181 180 166 174 181 161 147 159 178 188 201 212 216 223 239 236 226 218 209 207 210 218 224 230 236 233 224 220 222 227 216 200 211 223 218 211 218 223 214 201 204 219 230 227 225 225 229 233 229 223 211 216 230 228 228 229 237 247 254 255 257 269 283 297 344 9 52 67 70 87 91 89 87 81 76 71 67 65 64 63 62 59 56 55 53
75 104 93 181 196 204 182 176 188 175 151 178 171 182 180 184 182 171 189 201 181 199 220 221 223 225 228 222 218 220 214 213 217 221 226 230 237 240 240 232 228 235 236 227 227 231 228 223 223 220 204 198 213 224 230 230 232 231 228 232 234 230 217 218 226 227 229 231 238 245 251 251 249 251 255 265 277 313 32 64 78 102 108 106 104 97 91 85 76 69 70 70 70 66 60 57 53
60 92 91 216 211 211 197 192 195 202 184 165 164 182 189 196 188 186 207 203 199 222 223 217 223 227 224 218 219 221 218 219 221 224 228 232 237 240 245 245 239 240 243 246 243 241 239 234 232 227 209 199 210 222 225 221 228 236 232 230 233 232 224 223 225 226 231 235 236 238 245 247 245 244 243 250 256 261 205 96 96 118 126 123 119 111 102 96 88 76 74 75 72 70 62 59 57
52 92 138 201 181 168 203 201 199 205 184 165 163 167 190 202 194 201 189 164 251 240 230 229 236 241 235 227 223 222 221 223 224 229 229 229 233 238 243 246 245 243 245 248 246 245 243 241 238 237 228 214 214 221 224 224 233 241 241 232 230 232 227 227 228 225 231 243 242 236 239 239 241 240 240 245 243 242 218 157 180 152 145 146 143 133 114 100 89 74 66 65 62 60 54 53 52
69 35 205 156 136 130 180 182 187 191 175 164 158 154 192 196 197 215 198 198 244 242 239 241 248 250 248 240 231 224 223 226 229 231 229 227 227 230 239 244 246 247 249 251 250 249 244 241 239 239 240 233 229 227 220 220 235 242 245 239 232 230 228 228 228 226 231 239 241 240 238 235 237 235 232 235 225 227 224 196 201 180 169 171 169 165 137 120 89 77 63 56 54 50 46 48 44
90 10 188 147 131 83 164 175 171 173 169 170 171 177 198 188 209 232 220 229 242 249 253 254 260 251 243 242 235 229 227 228 229 230 228 227 225 226 230 237 245 251 255 259 258 256 253 250 245 241 240 239 239 236 219 209 227 238 239 240 237 232 232 232 230 231 236 236 243 242 233 231 230 226 226 227 215 218 222 213 211 192 193 200 186 189 180 187 158 96 68 56 55 44 37 41 41
99 91 164 171 223 335 177 179 167 168 177 189 193 202 214 207 222 246 237 242 247 254 261 264 270 253 238 233 229 229 229 229 228 229 229 227 229 229 228 232 241 250 254 256 257 257 258 257 256 252 246 242 237 234 223 213 225 235 231 231 232 233 236 237 234 238 244 243 249 240 229 233 229 221 222 222 215 216 217 213 211 193 199 220 206 207 229 258 270 263 318 45 59 49 31 29 31
64 132 180 170 213 289 190 188 186 190 207 221 218 220 231 230 236 260 253 251 249 252 259 264 264 249 235 228 226 227 228 230 230 230 231 231 234 236 237 240 243 248 250 249 251 252 254 255 257 256 252 250 242 233 225 218 224 230 229 223 216 224 234 239 238 235 239 240 243 241 240 242 235 229 226 226 223 218 215 209 211 224 242 233 219 261 303 304 302 291 280 292 323 123 26 16 15
48 137 154 141 112 20 190 202 210 213 228 232 224 236 249 240 252 268 258 252 249 248 251 255 252 241 229 223 224 227 229 232 234 234 235 235 237 242 245 247 248 248 248 247 249 250 250 251 251 252 250 249 246 237 223 214 219 223 224 219 214 221 226 230 235 231 232 236 239 246 251 247 243 242 235 232 219 212 212 206 214 243 251 224 218 271 308 292 280 266 250 242 217 171 31 12 11
103 115 131 122 179 275 217 219 226 223 233 225 212 241 265 233 214 260 255 247 244 242 240 241 238 231 225 222 223 225 230 233 236 238 238 238 238 243 246 247 249 248 249 251 252 251 250 251 248 246 245 244 241 238 227 211 212 217 220 224 225 224 219 221 232 236 233 234 237 240 251 254 250 244 235 222 196 197 205 205 221 239 232 216 222 247 284 265 245 234 215 183 164 151 43 12 10
89 84 144 352 341 272 235 228 228 214 227 229 214 246 283 182 191 243 250 244 239 234 231 230 226 225 223 222 224 225 231 235 239 241 239 241 239 240 243 244 246 247 250 253 254 256 256 256 254 247 242 241 235 232 230 216 210 217 223 233 232 220 220 226 233 237 227 225 232 235 249 252 237 218 196 193 193 197 203 204 220 229 223 227 236 247 266 251 232 225 201 159 128 85 26 5 4
77 63 150 322 357 340 244 235 215 190 211 226 189 273 285 211 225 240 244 237 230 225 226 227 223 225 225 226 229 231 236 240 243 243 240 240 239 238 239 241 244 246 252 259 263 265 263 258 255 250 242 238 230 225 231 223 212 216 223 230 227 218 227 241 238 227 216 217 234 240 239 234 217 198 182 192 205 208 207 203 205 214 226 233 232 244 245 231 218 213 193 157 79 53 13 359 357
79 51 74 339 1 341 287 23 173 176 202 172 151 262 276 245 245 238 233 231 223 220 223 226 226 227 229 231 235 237 240 244 245 243 241 238 238 239 239 242 246 250 259 266 272 271 267 260 250 246 239 233 225 219 224 218 211 217 220 220 222 221 223 227 220 213 211 222 249 248 228 218 216 199 190 204 215 212 208 200 193 193 203 189 150 95 186 192 191 196 183 123 53 37 5 4 0
34 4 35 32 13 281 296 358 148 155 208 175 147 250 266 268 270 235 225 230 221 224 226 227 229 230 233 236 238 241 242 245 244 240 239 237 237 240 242 245 247 255 262 262 268 271 268 261 248 240 232 225 215 212 218 214 212 220 221 217 220 215 196 194 196 193 197 218 242 231 202 200 225 201 190 197 185 180 181 172 165 164 178 172 130 123 160 153 137 140 111 19 27 34 27 68 80
27 12 315 353 136 268 307 272 163 148 190 167 145 254 268 272 286 247 223 223 219 228 232 231 233 233 235 238 240 243 243 243 242 239 238 237 237 240 244 247 248 252 257 259 261 261 263 257 244 231 215 215 211 209 213 205 205 216 213 211 215 211 202 211 227 219 203 203 215 208 183 183 207 190 167 144 108 126 136 144 155 155 167 164 142 140 150 141 125 114 93 53 18 88 110 113 110
0 58 239 274 161 278 319 295 195 168 124 173 180 245 275 280 307 289 215 216 219 227 236 237 238 238 238 240 242 243 243 243 242 240 240 239 240 242 244 246 248 251 254 260 255 245 251 239 233 218 195 204 206 198 202 203 206 213 212 218 222 215 223 239 242 233 219 215 225 228 202 185 188 178 136 92 59 94 132 157 158 139 124 126 119 129 137 131 122 106 100 111 110 121 122 117 112
321 16 217 235 206 221 299 313 267 129 118 214 219 229 255 264 289 296 224 218 220 228 241 242 241 241 240 241 242 243 243 244 244 242 242 243 244 244 245 246 247 252 254 257 251 237 228 212 225 218 189 200 202 198 213 220 213 212 218 228 222 210 230 238 225 216 217 227 239 241 226 198 185 170 89 86 75 131 157 156 138 119 118 117 111 128 127 119 116 105 132 131 124 121 121 114 106
205 183 164 249 241 218 251 282 262 141 116 230 217 245 260 267 276 273 257 234 228 237 247 247 245 245 244 243 243 243 244 246 246 244 244 244 245 245 245 245 246 249 252 254 246 228 211 203 219 217 192 200 201 203 220 219 206 207 216 216 206 205 223 214 197 204 223 225 228 223 208 187 170 152 105 125 132 137 135 128 120 117 119 116 119 135 118 113 118 121 129 128 125 123 117 107 101
159 172 151 172 215 250 238 249 262 198 177 238 226 238 254 264 273 271 262 240 235 247 253 250 248 247 246 245 244 244 245 248 246 243 243 243 244 245 243 243 244 245 248 249 235 217 209 203 208 206 198 202 205 211 220 213 201 197 196 193 195 218 228 217 216 251 227 196 191 185 177 169 168 168 150 143 141 139 135 129 130 131 125 118 130 134 122 120 121 122 120 114 116 117 112 105 100
114 126 128 161 199 270 255 254 295 211 174 251 238 238 256 261 268 274 270 245 234 246 251 250 249 248 247 245 245 245 245 248 245 240 241 242 241 241 241 240 240 241 241 241 230 211 206 201 200 200 201 208 213 210 205 200 194 189 187 189 204 228 223 217 216 211 191 182 179 174 174 182 173 162 158 157 157 163 164 151 147 142 132 128 130 127 124 122 119 114 107 105 106 103 107 108 104
92 122 140 224 211 255 255 246 313 356 172 266 281 268 263 258 263 273 271 247 233 242 246 250 251 249 249 247 247 246 245 245 240 237 237 237 238 237 237 237 236 237 234 234 230 211 202 196 198 205 210 212 210 206 205 203 205 213 215 211 216 218 208 201 195 198 198 188 182 184 181 172 165 163 164 168 172 170 158 145 140 132 126 128 130 126 122 120 116 106 93 96 105 99 98 103 102
82 112 132 263 247 267 282 304 337 8 183 271 324 305 266 256 257 264 259 246 245 249 248 252 254 251 250 249 248 246 244 242 237 234 234 234 235 234 233 234 233 230 225 223 220 208 198 195 199 207 213 209 204 210 220 217 215 225 225 214 208 206 203 202 202 205 202 193 188 184 171 162 164 168 164 163 161 151 145 141 134 128 126 127 126 121 116 113 107 102 95 86 92 97 93 98 107
119 134 146 242 256 269 286 302 332 12 129 277 317 300 273 256 249 254 254 249 254 257 256 257 258 255 254 254 254 250 245 241 236 233 232 230 231 231 231 231 229 227 220 216 213 205 197 196 202 206 205 204 201 210 219 214 211 212 206 199 197 198 200 205 207 197 183 180 180 169 159 157 160 160 152 149 147 142 141 138 133 134 133 126 119 114 110 107 100 98 95 79 77 89 95 103 124
249 182 175 214 225 217 238 292 324 344 12 20 349 303 281 256 247 255 265 263 261 261 259 259 257 255 256 255 254 252 248 245 240 235 231 229 229 230 230 227 226 227 222 217 212 205 201 200 205 207 205 205 205 215 220 214 208 202 197 195 195 197 200 201 200 187 173 171 169 158 154 154 153 150 145 144 144 141 141 140 139 140 132 121 116 109 105 103 99 96 90 83 83 84 83 90 124
285 230 202 213 210 213 251 354 8 3 336 345 22 315 286 288 261 260 286 309 268 262 256 256 257 256 253 251 250 249 247 246 242 238 234 230 229 228 226 224 224 224 222 217 208 200 203 204 205 206 208 209 207 210 214 208 203 206 217 218 210 208 205 192 184 180 173 168 164 156 153 151 150 149 145 145 147 146 146 143 139 134 122 115 113 106 100 95 93 93 88 88 86 72 71 77 129
299 255 210 209 183 168 209 94 52 312 266 293 58 80 281 294 250 243 274 293 279 278 265 259 261 259 254 252 250 247 245 243 238 235 232 228 227 225 223 223 224 223 221 215 203 195 200 204 206 208 211 212 206 201 201 202 210 222 226 221 214 215 211 191 178 178 174 166 162 156 153 151 151 152 150 150 152 151 149 140 132 126 118 113 106 96 87 81 78 75 73 73 58 52 63 62 102
245 251 158 157 156 173 185 147 166 239 266 309 52 115 271 285 256 251 295 302 289 283 269 262 261 260 259 257 254 248 245 243 237 232 227 224 225 225 225 223 224 224 219 213 203 196 198 202 206 207 208 210 206 203 203 206 218 226 215 205 197 202 214 201 184 178 172 167 163 158 155 155 155 157 156 156 155 152 147 136 128 122 116 106 93 84 75 71 68 61 61 58 42 43 48 29 24
249 207 116 131 144 150 131 118 150 355 356 300 254 127 231 273 264 298 341 287 267 267 261 261 262 260 262 259 254 249 244 241 238 234 228 224 223 224 225 223 222 221 217 212 204 198 201 205 205 200 202 208 205 205 209 207 210 210 200 196 196 203 208 200 187 179 173 169 166 161 160 160 160 162 161 160 156 150 143 135 128 121 111 96 87 82 70 65 60 53 50 42 33 30 23 14 13
184 130 93 82 79 81 84 97 107 52 330 252 198 160 218 270 248 230 2 229 241 258 263 270 271 260 259 260 253 247 241 236 234 232 230 225 222 223 222 219 218 218 215 208 201 198 202 206 204 198 204 212 207 203 204 196 192 193 196 206 217 212 203 194 186 180 174 172 170 167 166 165 165 165 164 162 156 150 144 139 130 120 107 94 87 76 63 58 52 45 38 32 25 15 10 10 5
140 113 70 56 37 39 53 46 77 67 282 254 202 185 193 269 264 198 207 222 225 251 283 292 278 251 253 275 262 246 239 234 230 227 225 220 219 219 220 218 216 214 211 204 199 199 200 201 205 207 209 211 206 202 202 195 191 198 209 222 225 216 207 198 189 182 177 175 174 172 170 170 169 168 166 162 157 153 150 143 133 125 111 98 86 69 58 50 41 35 25 19 13 3 3 2 354
121 87 83 74 352 9 25 356 48 111 254 266 251 202 185 238 259 238 249 260 238 229 252 275 269 242 263 295 277 250 238 233 228 224 219 214 213 214 216 217 214 210 209 204 200 201 200 198 204 211 210 207 203 202 201 196 195 206 218 226 225 217 211 204 194 185 180 178 178 176 174 173 172 171 169 164 161 158 154 147 140 132 116 98 82 63 52 40 29 20 6 359 352 346 344 339 340
87 95 111 93 339 352 348 308 65 226 249 275 320 339 220 240 252 263 266 267 250 227 228 242 253 258 272 288 277 255 239 231 226 223 219 214 212 213 214 215 213 211 209 206 202 201 202 201 204 211 211 204 201 200 197 195 198 213 223 224 219 215 213 208 199 189 183 180 181 180 178 177 176 173 171 169 167 162 157 153 146 135 118 100 84 63 44 28 7 347 339 333 323 319 308 293 293
157 144 140 134 128 131 280 271 269 266 265 301 300 240 250 267 265 247 247 253 252 247 246 248 255 264 272 275 268 257 242 233 228 224 221 217 214 214 216 215 214 213 210 207 204 201 202 203 204 210 208 201 200 198 197 201 210 222 225 217 213 213 211 206 199 192 186 184 184 184 183 181 179 176 174 173 170 164 159 155 146 135 122 109 96 78 41 339 312 306 305 302 297 287 270 255 256
186 161 138 157 161 167 216 224 228 259 281 306 295 233 201 216 260 246 246 264 264 257 258 258 260 265 267 265 258 251 242 235 229 225 221 219 217 215 217 217 215 215 211 207 205 202 202 202 203 207 202 196 198 199 200 210 219 225 222 213 211 212 209 205 200 195 191 187 187 188 187 184 182 181 178 174 171 165 159 153 145 136 126 117 111 116 216 251 265 278 279 280 273 254 244 240 239
217 125 117 188 188 158 172 200 182 190 311 303 246 226 217 215 269 267 257 276 271 257 259 260 260 263 265 262 256 248 244 238 231 226 221 219 217 216 217 218 217 217 213 209 206 203 202 202 203 206 204 200 201 203 208 216 221 222 218 212 210 208 206 204 199 195 193 190 189 190 190 187 185 184 181 177 173 166 159 155 147 137 133 131 136 187 240 251 257 272 272 262 248 235 231 231 234
165 132 177 214 173 124 116 239 49 72 270 271 209 247 293 310 280 270 249 260 274 272 265 255 254 258 260 258 253 246 244 240 234 229 223 218 216 215 217 219 220 219 215 213 208 204 204 204 203 205 208 208 207 209 213 218 221 220 216 210 207 206 204 203 200 197 195 192 191 192 192 190 188 188 185 181 177 170 164 160 154 149 156 166 191 226 243 250 251 258 256 244 236 231 230 234 240
125 182 203 177 96 89 105 225 348 44 249 271 250 249 284 290 273 304 37 240 260 269 261 254 255 254 251 251 249 245 244 242 238 230 224 220 216 216 218 219 222 223 220 217 211 206 205 206 206 207 210 211 210 211 213 217 221 219 213 207 204 204 203 203 201 199 196 194 194 194 194 194 193 191 189 185 182 177 170 166 165 168 175 184 202 223 235 243 243 243 239 233 232 232 236 241 246
122 180 177 127 141 199 116 160 221 169 247 281 295 266 252 214 228 268 184 217 234 245 248 255 257 246 246 249 246 243 242 239 236 230 223 221 219 218 219 219 221 223 223 219 213 208 206 208 210 212 213 214 214 213 213 216 221 219 212 206 203 203 202 202 201 200 200 199 198 197 198 199 197 194 192 190 187 181 176 175 175 177 185 190 200 216 228 235 238 241 240 236 236 237 241 246 251
53 95 137 103 123 174 163 150 169 174 227 277 312 302 256 218 202 197 208 212 214 228 235 240 248 244 245 252 251 244 242 239 236 232 226 222 220 219 220 220 222 223 223 220 214 209 207 208 212 212 211 212 215 216 214 217 220 216 210 205 203 203 202 202 202 202 203 202 202 203 203 203 201 198 195 193 190 185 182 184 183 185 190 194 203 213 221 231 240 246 245 241 242 241 244 251 257
152 158 170 181 117 115 161 154 131 136 166 224 281 284 266 240 185 191 208 213 204 212 220 220 245 252 249 255 258 251 245 243 240 235 230 225 221 220 219 220 222 223 224 221 216 212 210 211 213 212 209 209 213 215 215 218 220 215 208 205 203 203 203 203 203 204 205 205 205 207 207 206 204 201 199 195 193 190 188 189 191 192 193 199 206 210 217 234 242 243 241 241 244 246 249 255 262
176 190 192 186 165 126 142 238 222 130 174 193 180 268 269 244 185 197 202 213 206 206 232 239 245 255 258 261 265 257 247 244 242 238 233 227 222 220 218 218 220 222 222 220 217 216 215 213 213 211 209 211 215 216 216 219 219 213 208 204 202 203 204 204 205 206 206 207 208 209 209 208 206 204 202 200 198 196 194 195 195 196 199 203 208 214 224 231 230 231 236 243 246 248 252 259 267